Weather in Vankarem

Russia / Chukotka Autonomous Okrug     67°50′27″N   175°50′17″W
temp.,
°C
wind,
m/s
gust,
m/s
humid.,
%
clouds,
%
prec.,
mm/h
press.,
hPa
HPBL,
m
15 april, thu
thu1500:00−11nw71294100 2.5 1020387
03:00−12nw71194100 0.3 1020330
06:00−12nw71094100 0.6 1021328
09:00−11nw6892100 0.3 1022337
12:00−9nw6690100 0.5 1022395
15:00−9wnw559095 0.1 1023361
18:00−11w339586 0.1 102443
21:00−15sw339858 0.0 102529
16 april, fri
fri1600:00−16ssw459712 0.0 102443
03:00−17s469612 0.0 102454
06:00−15s4791100 0.0 102497
09:00−10s61382100 0.0 1023309
12:00−7s7158096 0.0 1022563
15:00−5ssw81481100 0.0 1020643
18:00−5s81582100 0.0 1018504
21:00−6s71484100 0.0 1017343
17 april, sat
sat1700:00−7s5129118 0.0 1015173
03:00−5s51194100 0.0 1014183
06:000ssw61289100 0.0 1013412
09:00+1ssw71290100 0.0 1014377
12:00+1ssw81388100 0.0 1015332
15:00+2ssw91785100 0.0 1016351
18:00+3s82074100 0.0 1017371
21:00−1s51278100 0.0 1018162
18 april, sun
sun1800:00+2s71663100 0.0 1018249
03:00+2sse71466100 0.0 1018188
06:00+1se51375100 0.0 1018200
09:00+1s61378100 0.0 1020336
12:00+1sse5118583 0.0 1020335
15:00+1sse598094 0.0 1020300
18:00−1sse6117715 0.0 1021178
21:00−6s46865 0.0 102358
19 april, mon
mon1900:00−9s46936 0.0 102458
03:00−7sse512875 0.0 1025131
06:00−5s513845 0.0 1026169
09:00−2s613805 0.0 1026351
12:00−1s611835 0.0 1027434
15:00−1s59845 0.0 1027293
18:00−3s488894 0.0 1028101
21:00−5s4889100 0.0 102886